• In Belgien
  • Länderverzeichnis
  • Für 7 Tage
  • Wassertemperatur
  • Satellitenkarten
  • Wetterkarte
  • Widgets
  • user-avatar
    Anmelden

    Stündliche Wetter Denisova

    Heute, 24 Oktober, Mittwoch

    Zeit Temperatur Niederschläge Wind Luftdruck Luftfeuchtigkeit
    00:00 +3°C° 0 mm 4 m/S 751 mmHg 85%
    01:00 +3°C° 0 mm 4 m/S 750 mmHg 84%
    02:00 +3°C° 0 mm 4 m/S 750 mmHg 83%
    03:00 +3°C° 0 mm 4 m/S 750 mmHg 81%
    04:00 +3°C° 0 mm 4 m/S 750 mmHg 80%
    05:00 +3°C° 0 mm 4 m/S 750 mmHg 79%
    06:00 +1°C° 0 mm 5 m/S 750 mmHg 78%
    07:00 +1°C° 0 mm 5 m/S 750 mmHg 77%
    08:00 +2°C° 0 mm 5 m/S 750 mmHg 75%
    09:00 +3°C° 0 mm 5 m/S 750 mmHg 73%
    10:00 +5°C° 0 mm 5 m/S 750 mmHg 71%
    11:00 +6°C° 0 mm 5 m/S 749 mmHg 71%
    12:00 +7°C° 0 mm 5 m/S 749 mmHg 71%
    13:00 +8°C° 0 mm 5 m/S 749 mmHg 71%
    14:00 +8°C° 0 mm 5 m/S 749 mmHg 73%
    15:00 +7°C° 0 mm 5 m/S 749 mmHg 76%
    16:00 +7°C° 0 mm 5 m/S 750 mmHg 78%
    17:00 +7°C° 0.1 mm 5 m/S 750 mmHg 79%
    18:00 +6°C° 0.1 mm 5 m/S 750 mmHg 81%
    19:00 +6°C° 0.1 mm 5 m/S 750 mmHg 82%
    20:00 +6°C° 0 mm 5 m/S 750 mmHg 80%
    21:00 +5°C° 0 mm 4 m/S 750 mmHg 78%
    22:00 +4°C° 0 mm 4 m/S 750 mmHg 76%
    23:00 +4°C° 0 mm 4 m/S 750 mmHg 75%

    Morgen, 25 Oktober, Donnerstag

    Zeit Temperatur Niederschläge Wind Luftdruck Luftfeuchtigkeit
    00:00 +4°C° 0 mm 4 m/S 750 mmHg 73%
    01:00 +3°C° 0 mm 4 m/S 750 mmHg 72%
    02:00 +3°C° 0 mm 3 m/S 750 mmHg 73%
    03:00 +2°C° 0 mm 3 m/S 751 mmHg 74%
    04:00 +2°C° 0 mm 3 m/S 751 mmHg 76%
    05:00 +2°C° 0 mm 3 m/S 751 mmHg 77%
    06:00 +2°C° 0 mm 3 m/S 751 mmHg 79%
    07:00 +2°C° 0 mm 3 m/S 751 mmHg 80%
    08:00 +3°C° 0 mm 3 m/S 751 mmHg 78%
    09:00 +4°C° 0 mm 4 m/S 751 mmHg 76%
    10:00 +6°C° 0 mm 4 m/S 751 mmHg 74%
    11:00 +7°C° 0 mm 4 m/S 751 mmHg 72%
    12:00 +8°C° 0 mm 4 m/S 751 mmHg 71%
    13:00 +10°C° 0 mm 4 m/S 751 mmHg 69%
    14:00 +8°C° 0 mm 4 m/S 751 mmHg 72%
    15:00 +8°C° 0 mm 4 m/S 751 mmHg 74%
    16:00 +7°C° 0 mm 4 m/S 751 mmHg 77%
    17:00 +7°C° 0 mm 4 m/S 751 mmHg 77%
    18:00 +7°C° 0 mm 4 m/S 751 mmHg 77%
    19:00 +6°C° 0 mm 5 m/S 751 mmHg 77%
    20:00 +6°C° 0 mm 5 m/S 751 mmHg 76%
    21:00 +6°C° 0 mm 5 m/S 751 mmHg 75%
    22:00 +6°C° 0 mm 5 m/S 751 mmHg 74%
    23:00 +6°C° 0 mm 5 m/S 751 mmHg 73%

    übermorgen, 26 Oktober, Freitag

    Zeit Temperatur Niederschläge Wind Luftdruck Luftfeuchtigkeit
    00:00 +6°C° 0 mm 5 m/S 750 mmHg 71%
    01:00 +6°C° 0 mm 5 m/S 750 mmHg 70%
    02:00 +6°C° 0 mm 5 m/S 750 mmHg 69%
    03:00 +6°C° 0 mm 5 m/S 750 mmHg 68%
    04:00 +6°C° 0 mm 5 m/S 750 mmHg 67%
    05:00 +6°C° 0 mm 5 m/S 750 mmHg 66%
    06:00 +6°C° 0 mm 5 m/S 749 mmHg 65%
    07:00 +6°C° 0 mm 5 m/S 749 mmHg 64%
    08:00 +7°C° 0 mm 6 m/S 749 mmHg 59%
    09:00 +8°C° 0 mm 6 m/S 748 mmHg 55%
    10:00 +10°C° 0 mm 6 m/S 748 mmHg 50%
    11:00 +11°C° 0 mm 6 m/S 747 mmHg 48%
    12:00 +12°C° 0 mm 7 m/S 747 mmHg 46%
    13:00 +14°C° 0 mm 7 m/S 747 mmHg 43%
    14:00 +12°C° 0 mm 7 m/S 746 mmHg 45%
    15:00 +11°C° 0 mm 6 m/S 746 mmHg 47%
    16:00 +10°C° 0 mm 6 m/S 745 mmHg 49%
    17:00 +10°C° 0 mm 6 m/S 745 mmHg 51%
    18:00 +10°C° 0 mm 6 m/S 745 mmHg 52%
    19:00 +9°C° 0 mm 5 m/S 744 mmHg 54%
    20:00 +9°C° 0 mm 5 m/S 744 mmHg 54%
    21:00 +9°C° 0 mm 5 m/S 743 mmHg 55%
    22:00 +10°C° 0 mm 5 m/S 743 mmHg 56%
    23:00 +9°C° 0.3 mm 5 m/S 743 mmHg 60%

    27 Oktober, Samstag

    Zeit Temperatur Niederschläge Wind Luftdruck Luftfeuchtigkeit
    00:00 +9°C° 0.3 mm 5 m/S 743 mmHg 64%
    01:00 +10°C° 0.3 mm 4 m/S 742 mmHg 68%
    02:00 +8°C° 1.4 mm 4 m/S 742 mmHg 76%
    03:00 +8°C° 1.4 mm 4 m/S 743 mmHg 84%
    04:00 +8°C° 1.4 mm 3 m/S 743 mmHg 91%
    05:00 +8°C° 0.8 mm 3 m/S 743 mmHg 92%
    06:00 +8°C° 0.8 mm 3 m/S 743 mmHg 93%
    07:00 +7°C° 0.8 mm 2 m/S 743 mmHg 93%
    08:00 +8°C° 0 mm 3 m/S 744 mmHg 87%
    09:00 +8°C° 0 mm 3 m/S 744 mmHg 80%
    10:00 +7°C° 0 mm 4 m/S 744 mmHg 74%
    11:00 +7°C° 0 mm 4 m/S 745 mmHg 71%
    12:00 +7°C° 0 mm 4 m/S 745 mmHg 68%
    13:00 +8°C° 0 mm 3 m/S 745 mmHg 64%
    14:00 +7°C° 0 mm 3 m/S 746 mmHg 67%
    15:00 +5°C° 0 mm 3 m/S 746 mmHg 70%
    16:00 +6°C° 0 mm 2 m/S 746 mmHg 73%
    17:00 +5°C° 0 mm 2 m/S 747 mmHg 75%
    18:00 +5°C° 0 mm 2 m/S 747 mmHg 78%
    19:00 +4°C° 0 mm 2 m/S 747 mmHg 80%
    20:00 +4°C° 0 mm 2 m/S 747 mmHg 81%
    21:00 +4°C° 0 mm 2 m/S 747 mmHg 81%
    22:00 +3°C° 0 mm 2 m/S 747 mmHg 81%
    23:00 +3°C° 0 mm 2 m/S 747 mmHg 81%

    28 Oktober, Sonntag

    Zeit Temperatur Niederschläge Wind Luftdruck Luftfeuchtigkeit
    00:00 +3°C° 0 mm 2 m/S 747 mmHg 81%
    01:00 +2°C° 0 mm 2 m/S 747 mmHg 81%
    02:00 +2°C° 0 mm 2 m/S 748 mmHg 82%
    03:00 +2°C° 0 mm 2 m/S 748 mmHg 82%
    04:00 +1°C° 0 mm 3 m/S 748 mmHg 83%
    05:00 0°C° 0 mm 3 m/S 748 mmHg 84%
    06:00 0°C° 0 mm 3 m/S 748 mmHg 85%
    07:00 -1°C° 0 mm 3 m/S 748 mmHg 86%
    08:00 0°C° 0 mm 3 m/S 748 mmHg 82%
    09:00 0°C° 0 mm 4 m/S 748 mmHg 77%
    10:00 +1°C° 0 mm 4 m/S 748 mmHg 72%
    11:00 +2°C° 0 mm 5 m/S 748 mmHg 69%
    12:00 +3°C° 0 mm 5 m/S 748 mmHg 65%
    13:00 +3°C° 0 mm 5 m/S 747 mmHg 61%
    14:00 +3°C° 0 mm 5 m/S 747 mmHg 64%
    15:00 +3°C° 0 mm 4 m/S 746 mmHg 67%
    16:00 +3°C° 0 mm 4 m/S 746 mmHg 70%
    17:00 +3°C° 0.4 mm 4 m/S 745 mmHg 73%
    18:00 +2°C° 0.4 mm 5 m/S 744 mmHg 76%
    19:00 +2°C° 0.4 mm 5 m/S 743 mmHg 79%
    20:00 +2°C° 0.6 mm 5 m/S 742 mmHg 81%
    21:00 +2°C° 0.6 mm 5 m/S 741 mmHg 82%
    22:00 +3°C° 0.6 mm 5 m/S 741 mmHg 84%
    23:00 +2°C° 0.3 mm 5 m/S 741 mmHg 85%

    29 Oktober, Montag

    Zeit Temperatur Niederschläge Wind Luftdruck Luftfeuchtigkeit
    00:00 +2°C° 0.3 mm 5 m/S 741 mmHg 86%
    01:00 +3°C° 0.3 mm 4 m/S 740 mmHg 86%
    02:00 +2°C° 0.5 mm 5 m/S 741 mmHg 86%
    03:00 +1°C° 0.5 mm 5 m/S 741 mmHg 85%
    04:00 +1°C° 0.5 mm 5 m/S 741 mmHg 85%
    05:00 +1°C° 0 mm 5 m/S 741 mmHg 86%
    06:00 +1°C° 0 mm 5 m/S 742 mmHg 86%
    07:00 0°C° 0 mm 5 m/S 742 mmHg 87%
    08:00 +1°C° 0.1 mm 5 m/S 743 mmHg 85%
    09:00 +1°C° 0.1 mm 6 m/S 744 mmHg 83%
    10:00 +2°C° 0.1 mm 6 m/S 744 mmHg 81%
    11:00 +2°C° 0.1 mm 6 m/S 745 mmHg 79%
    12:00 +2°C° 0.1 mm 6 m/S 746 mmHg 77%
    13:00 +2°C° 0.1 mm 6 m/S 748 mmHg 76%
    14:00 +1°C° 0.1 mm 6 m/S 748 mmHg 76%
    15:00 +1°C° 0.1 mm 6 m/S 749 mmHg 75%
    16:00 +1°C° 0.1 mm 6 m/S 750 mmHg 75%
    17:00 0°C° 0 mm 5 m/S 751 mmHg 76%
    18:00 0°C° 0 mm 5 m/S 752 mmHg 77%
    19:00 0°C° 0 mm 4 m/S 752 mmHg 77%
    20:00 -1°C° 0 mm 4 m/S 753 mmHg 79%
    21:00 -1°C° 0 mm 4 m/S 753 mmHg 80%
    22:00 -1°C° 0 mm 4 m/S 754 mmHg 82%
    23:00 -1°C° 0 mm 4 m/S 754 mmHg 82%

    30 Oktober, Dienstag

    Zeit Temperatur Niederschläge Wind Luftdruck Luftfeuchtigkeit
    00:00 -1°C° 0 mm 4 m/S 755 mmHg 81%
    01:00 -2°C° 0 mm 4 m/S 756 mmHg 81%
    02:00 -2°C° 0 mm 4 m/S 756 mmHg 80%
    03:00 -3°C° 0 mm 4 m/S 757 mmHg 80%
    04:00 -4°C° 0 mm 4 m/S 758 mmHg 79%
    05:00 -4°C° 0 mm 4 m/S 758 mmHg 79%
    06:00 -4°C° 0 mm 4 m/S 759 mmHg 78%
    07:00 -4°C° 0 mm 4 m/S 759 mmHg 78%
    08:00 -4°C° 0 mm 4 m/S 760 mmHg 73%
    09:00 -4°C° 0 mm 5 m/S 760 mmHg 68%
    10:00 -2°C° 0 mm 5 m/S 761 mmHg 64%
    11:00 -2°C° 0 mm 5 m/S 761 mmHg 61%
    12:00 -2°C° 0 mm 4 m/S 761 mmHg 59%
    13:00 -1°C° 0 mm 4 m/S 762 mmHg 57%
    14:00 -1°C° 0 mm 3 m/S 762 mmHg 60%
    15:00 -2°C° 0 mm 3 m/S 762 mmHg 64%
    16:00 -2°C° 0 mm 2 m/S 762 mmHg 67%
    17:00 -2°C° 0 mm 2 m/S 762 mmHg 68%
    18:00 -1°C° 0 mm 1 m/S 762 mmHg 70%
    19:00 -1°C° 0 mm 1 m/S 762 mmHg 71%
    20:00 -1°C° 0 mm 1 m/S 762 mmHg 71%
    21:00 -2°C° 0 mm 0 m/S 762 mmHg 71%
    22:00 -2°C° 0 mm 0 m/S 762 mmHg 71%
    23:00 -2°C° 0 mm 0 m/S 762 mmHg 71%
    Mehr zeigen